LAN321 SEQM-SPJC

Flight info

Callsign LAN321
Flight time N/A
Altitude 35000
Route KETOM3A KETOM UM674 ROBIG/N0461F360 UM674 ATATU ATATU4
Aircraft B763/M-SDE2E3FGHIJ1RWXY/L

Departure

Time 2026-05-07 19:22
Airport Mariscal Sucre International Airport (SEQM)

Arrival

Time N/A
Airport Jorge Chávez International Airport (SPJC)
Time Latitude Longitude Altitude Speed Heading
2026-05-07 19:20 -0.14230 -78.35368 7920 ft 0 kts 358°
2026-05-07 19:21 -0.14179 -78.35370 7921 ft 31 kts 358°
2026-05-07 19:21 -0.13741 -78.35384 7894 ft 94 kts 359°
2026-05-07 19:21 -0.12887 -78.35425 7879 ft 149 kts 358°
2026-05-07 19:22 -0.11686 -78.35480 7832 ft 196 kts 358°
2026-05-07 19:22 -0.10227 -78.35544 8263 ft 215 kts 357°
2026-05-07 19:22 -0.08690 -78.35763 8761 ft 240 kts 345°
2026-05-07 19:22 -0.07047 -78.36439 9143 ft 262 kts 335°
2026-05-07 19:23 -0.05438 -78.37261 9898 ft 255 kts 334°
2026-05-07 19:23 -0.03842 -78.38077 10144 ft 262 kts 334°
2026-05-07 19:23 -0.02200 -78.38915 10237 ft 267 kts 333°
2026-05-07 19:23 -0.00523 -78.39783 10432 ft 269 kts 332°
2026-05-07 19:24 0.01146 -78.40641 10313 ft 269 kts 334°
2026-05-07 19:24 0.02809 -78.41505 10777 ft 273 kts 334°
2026-05-07 19:24 0.04473 -78.42367 11414 ft 272 kts 334°
2026-05-07 19:24 0.06187 -78.43240 12000 ft 277 kts 338°
2026-05-07 19:25 0.08006 -78.43805 12569 ft 278 kts 344°
2026-05-07 19:25 0.09751 -78.44687 13126 ft 286 kts 320°
2026-05-07 19:25 0.11100 -78.46157 13741 ft 291 kts 307°
2026-05-07 19:25 0.12216 -78.47857 14327 ft 294 kts 300°
2026-05-07 19:26 0.13118 -78.49709 14882 ft 297 kts 290°
2026-05-07 19:26 0.13471 -78.51736 15359 ft 299 kts 264°
2026-05-07 19:26 0.12918 -78.53781 15491 ft 314 kts 238°
2026-05-07 19:26 0.11489 -78.55471 15623 ft 326 kts 214°
2026-05-07 19:27 0.09505 -78.56573 15719 ft 338 kts 201°
2026-05-07 19:27 0.07291 -78.57512 15798 ft 353 kts 199°
2026-05-07 19:27 0.04964 -78.58449 15860 ft 367 kts 200°
2026-05-07 19:27 0.02598 -78.59548 15705 ft 383 kts 205°
2026-05-07 19:28 0.00219 -78.60813 15875 ft 390 kts 205°
2026-05-07 19:28 -0.02200 -78.62055 16100 ft 393 kts 205°
2026-05-07 19:28 -0.04649 -78.63312 16308 ft 395 kts 205°
2026-05-07 19:28 -0.07103 -78.64558 16656 ft 396 kts 205°
2026-05-07 19:29 -0.09547 -78.65824 17002 ft 398 kts 206°
2026-05-07 19:29 -0.12023 -78.67093 17307 ft 400 kts 204°
2026-05-07 19:29 -0.14523 -78.68353 17577 ft 404 kts 205°
2026-05-07 19:29 -0.16993 -78.69622 17813 ft 406 kts 206°
2026-05-07 19:30 -0.19517 -78.70911 18080 ft 407 kts 201°
2026-05-07 19:30 -0.22240 -78.71619 18328 ft 404 kts 182°
2026-05-07 19:30 -0.25029 -78.71481 18575 ft 401 kts 169°
2026-05-07 19:30 -0.27780 -78.71020 18785 ft 402 kts 166°
2026-05-07 19:31 -0.30477 -78.70264 19057 ft 402 kts 161°
2026-05-07 19:31 -0.33159 -78.69439 19283 ft 404 kts 161°
2026-05-07 19:31 -0.35859 -78.68647 19509 ft 406 kts 161°
2026-05-07 19:31 -0.38564 -78.67836 19713 ft 407 kts 160°
2026-05-07 19:32 -0.41252 -78.67034 19957 ft 407 kts 161°
2026-05-07 19:32 -0.43973 -78.66235 20121 ft 410 kts 162°
2026-05-07 19:32 -0.46711 -78.65418 20343 ft 410 kts 161°
2026-05-07 19:32 -0.49454 -78.64601 20496 ft 412 kts 161°
2026-05-07 19:33 -0.52199 -78.63792 20725 ft 413 kts 161°
2026-05-07 19:33 -0.54967 -78.62965 20901 ft 416 kts 161°
2026-05-07 19:33 -0.57746 -78.62144 21133 ft 416 kts 161°
2026-05-07 19:33 -0.60520 -78.61312 21326 ft 418 kts 160°
2026-05-07 19:34 -0.63314 -78.60485 21535 ft 418 kts 160°
2026-05-07 19:34 -0.66112 -78.59661 21696 ft 419 kts 161°
2026-05-07 19:34 -0.68916 -78.58821 21851 ft 421 kts 160°
2026-05-07 19:34 -0.70775 -78.58266 22099 ft 422 kts 161°
2026-05-07 19:35 -0.73593 -78.57425 22266 ft 423 kts 161°
2026-05-07 19:35 -0.76427 -78.56594 22380 ft 425 kts 162°
2026-05-07 19:35 -0.79260 -78.55747 22530 ft 427 kts 161°
2026-05-07 19:35 -0.82110 -78.54898 22693 ft 427 kts 161°
2026-05-07 19:36 -0.85885 -78.53775 22851 ft 429 kts 161°
2026-05-07 19:36 -0.87829 -78.53205 22964 ft 429 kts 161°
2026-05-07 19:36 -0.90687 -78.52357 23073 ft 430 kts 161°
2026-05-07 19:36 -0.93523 -78.51518 23146 ft 431 kts 161°
2026-05-07 19:37 -0.96396 -78.50648 23243 ft 431 kts 161°
2026-05-07 19:37 -0.99277 -78.49792 23317 ft 432 kts 161°
2026-05-07 19:37 -1.02169 -78.48941 23379 ft 434 kts 162°
2026-05-07 19:37 -1.05065 -78.48087 23338 ft 434 kts 161°
2026-05-07 19:38 -1.07969 -78.47224 23447 ft 435 kts 162°
2026-05-07 19:38 -1.10911 -78.46470 23548 ft 437 kts 167°
2026-05-07 19:38 -1.13921 -78.45949 23631 ft 439 kts 169°
2026-05-07 19:38 -1.16917 -78.45569 23727 ft 441 kts 175°
2026-05-07 19:39 -1.20017 -78.45454 23805 ft 441 kts 176°
2026-05-07 19:39 -1.23045 -78.45296 23906 ft 441 kts 175°
2026-05-07 19:39 -1.26127 -78.45150 23968 ft 442 kts 176°
2026-05-07 19:39 -1.29201 -78.45006 24049 ft 442 kts 175°
2026-05-07 19:40 -1.32279 -78.44844 24136 ft 442 kts 175°
2026-05-07 19:40 -1.35358 -78.44701 24215 ft 442 kts 175°
2026-05-07 19:40 -1.38438 -78.44557 24292 ft 443 kts 176°
2026-05-07 19:40 -1.41513 -78.44404 24409 ft 443 kts 175°
2026-05-07 19:41 -1.44556 -78.44246 24516 ft 444 kts 175°
2026-05-07 19:41 -1.47636 -78.44106 24662 ft 444 kts 176°
2026-05-07 19:41 -1.50723 -78.43953 24743 ft 443 kts 175°
2026-05-07 19:41 -1.53800 -78.43799 24886 ft 442 kts 175°
2026-05-07 19:42 -1.56880 -78.43650 24990 ft 443 kts 175°
2026-05-07 19:42 -1.59963 -78.43502 25089 ft 443 kts 175°
2026-05-07 19:42 -1.63047 -78.43350 25150 ft 443 kts 176°
2026-05-07 19:42 -1.66120 -78.43206 25169 ft 444 kts 175°
2026-05-07 19:43 -1.69207 -78.43045 25195 ft 444 kts 175°
2026-05-07 19:43 -1.72298 -78.42896 25255 ft 445 kts 176°
2026-05-07 19:43 -1.75384 -78.42753 25308 ft 445 kts 175°
2026-05-07 19:43 -1.78481 -78.42597 25368 ft 445 kts 175°
2026-05-07 19:44 -1.81580 -78.42445 25417 ft 446 kts 175°
2026-05-07 19:44 -1.84640 -78.42297 25469 ft 446 kts 175°
2026-05-07 19:44 -1.87775 -78.42145 25514 ft 447 kts 175°
2026-05-07 19:44 -1.90844 -78.41995 25555 ft 447 kts 175°
2026-05-07 19:45 -1.93956 -78.41840 25610 ft 447 kts 175°
2026-05-07 19:45 -1.97059 -78.41690 25689 ft 448 kts 176°
2026-05-07 19:45 -2.00178 -78.41539 25756 ft 448 kts 175°
2026-05-07 19:45 -2.03298 -78.41387 25816 ft 449 kts 176°
2026-05-07 19:46 -2.06419 -78.41234 25888 ft 449 kts 175°
2026-05-07 19:46 -2.09531 -78.41081 25946 ft 449 kts 176°
2026-05-07 19:46 -2.12657 -78.40930 26004 ft 449 kts 175°
2026-05-07 19:46 -2.15787 -78.40776 26028 ft 450 kts 175°
2026-05-07 19:47 -2.18917 -78.40625 26109 ft 450 kts 175°
2026-05-07 19:47 -2.22037 -78.40472 26188 ft 450 kts 175°
2026-05-07 19:47 -2.25170 -78.40316 26242 ft 451 kts 176°
2026-05-07 19:47 -2.28310 -78.40163 26275 ft 452 kts 176°
2026-05-07 19:48 -2.31453 -78.40014 26335 ft 452 kts 176°
2026-05-07 19:48 -2.34596 -78.39858 26378 ft 452 kts 176°
2026-05-07 19:48 -2.37731 -78.39705 26438 ft 452 kts 176°
2026-05-07 19:48 -2.40879 -78.39551 26500 ft 452 kts 176°
2026-05-07 19:49 -2.43986 -78.39400 26550 ft 453 kts 176°
2026-05-07 19:49 -2.47137 -78.39246 26605 ft 453 kts 176°
2026-05-07 19:49 -2.50290 -78.39091 26667 ft 453 kts 176°
2026-05-07 19:49 -2.53434 -78.38938 26710 ft 453 kts 176°
2026-05-07 19:50 -2.56590 -78.38784 26752 ft 454 kts 176°
2026-05-07 19:50 -2.59747 -78.38630 26795 ft 454 kts 176°
2026-05-07 19:50 -2.62897 -78.38475 26841 ft 454 kts 176°
2026-05-07 19:50 -2.66059 -78.38321 26884 ft 454 kts 176°
2026-05-07 19:51 -2.69221 -78.38167 26926 ft 455 kts 176°
2026-05-07 19:51 -2.72375 -78.38012 26963 ft 455 kts 176°
2026-05-07 19:51 -2.75542 -78.37858 26999 ft 455 kts 176°
2026-05-07 19:51 -2.78709 -78.37703 27040 ft 455 kts 176°
2026-05-07 19:52 -2.81835 -78.37551 27080 ft 455 kts 176°
2026-05-07 19:52 -2.85037 -78.37394 27121 ft 456 kts 176°
2026-05-07 19:52 -2.88165 -78.37241 27155 ft 456 kts 176°
2026-05-07 19:52 -2.91338 -78.37086 27190 ft 456 kts 176°
2026-05-07 19:53 -2.94511 -78.36931 27219 ft 456 kts 176°
2026-05-07 19:53 -2.97675 -78.36776 27246 ft 456 kts 176°
2026-05-07 19:53 -3.00842 -78.36623 27479 ft 450 kts 176°
2026-05-07 19:53 -3.03939 -78.36470 28056 ft 437 kts 176°
2026-05-07 19:54 -3.06959 -78.36317 28325 ft 433 kts 176°
2026-05-07 19:54 -3.09976 -78.36174 28380 ft 434 kts 176°
2026-05-07 19:54 -3.15954 -78.35871 28537 ft 433 kts 176°
2026-05-07 19:55 -3.21992 -78.35595 28669 ft 434 kts 176°
2026-05-07 19:55 -3.28051 -78.35289 28815 ft 436 kts 176°
2026-05-07 19:56 -3.34106 -78.34995 28978 ft 436 kts 176°
2026-05-07 19:56 -3.40186 -78.34701 29016 ft 438 kts 177°
2026-05-07 19:57 -3.46261 -78.34397 29121 ft 439 kts 177°
2026-05-07 19:57 -3.52367 -78.34101 29290 ft 440 kts 177°
2026-05-07 19:58 -3.58498 -78.33801 29417 ft 441 kts 177°
2026-05-07 19:58 -3.64639 -78.33500 29548 ft 442 kts 177°
2026-05-07 19:59 -3.70783 -78.33200 29658 ft 443 kts 177°
2026-05-07 19:59 -3.76942 -78.32903 29800 ft 441 kts 178°
2026-05-07 20:00 -3.83048 -78.32593 29878 ft 442 kts 178°
2026-05-07 20:00 -3.89198 -78.32300 29983 ft 443 kts 177°
2026-05-07 20:01 -3.95370 -78.31995 30079 ft 444 kts 177°
2026-05-07 20:01 -4.01539 -78.31693 30183 ft 444 kts 177°
2026-05-07 20:02 -4.07716 -78.31391 30255 ft 445 kts 177°
2026-05-07 20:02 -4.13911 -78.31087 30342 ft 445 kts 177°
2026-05-07 20:03 -4.20103 -78.30783 30426 ft 446 kts 177°
2026-05-07 20:03 -4.26312 -78.30483 30479 ft 446 kts 178°
2026-05-07 20:04 -4.32510 -78.30171 30494 ft 446 kts 177°
2026-05-07 20:04 -4.38727 -78.29872 30569 ft 447 kts 178°
2026-05-07 20:05 -4.44939 -78.29566 30660 ft 447 kts 178°
2026-05-07 20:05 -4.51148 -78.29256 30726 ft 446 kts 178°
2026-05-07 20:06 -4.57313 -78.28956 30735 ft 446 kts 178°
2026-05-07 20:06 -4.63530 -78.28655 30800 ft 447 kts 178°
2026-05-07 20:07 -4.69753 -78.28348 30852 ft 447 kts 178°
2026-05-07 20:07 -4.75993 -78.28042 30926 ft 448 kts 178°
2026-05-07 20:08 -4.82218 -78.27736 30990 ft 448 kts 178°
2026-05-07 20:08 -4.88374 -78.27434 31536 ft 435 kts 178°
2026-05-07 20:09 -4.91347 -78.27280 32087 ft 423 kts 179°
2026-05-07 20:09 -4.94253 -78.27139 32572 ft 413 kts 180°
2026-05-07 20:09 -4.97121 -78.27010 32748 ft 412 kts 180°
2026-05-07 20:10 -5.02858 -78.26718 32973 ft 414 kts 180°
2026-05-07 20:10 -5.05739 -78.26580 33081 ft 415 kts 180°
2026-05-07 20:10 -5.08627 -78.26441 33204 ft 415 kts 180°
2026-05-07 20:10 -5.11511 -78.26297 33330 ft 416 kts 180°
2026-05-07 20:11 -5.14409 -78.26154 33434 ft 417 kts 180°
2026-05-07 20:11 -5.17313 -78.26012 33541 ft 418 kts 180°
2026-05-07 20:11 -5.20221 -78.25869 33649 ft 418 kts 180°
2026-05-07 20:11 -5.23124 -78.25725 33756 ft 419 kts 180°
2026-05-07 20:12 -5.26044 -78.25580 33801 ft 420 kts 180°
2026-05-07 20:12 -5.31898 -78.25296 33984 ft 422 kts 180°
2026-05-07 20:12 -5.34834 -78.25149 34090 ft 422 kts 180°
2026-05-07 20:13 -5.37774 -78.25007 34187 ft 423 kts 180°
2026-05-07 20:13 -5.43657 -78.24716 34345 ft 424 kts 180°
2026-05-07 20:14 -5.49564 -78.24425 34562 ft 426 kts 180°
2026-05-07 20:14 -5.55499 -78.24134 34658 ft 427 kts 180°
2026-05-07 20:14 -5.58418 -78.23990 34780 ft 425 kts 180°
2026-05-07 20:15 -5.61356 -78.23846 34870 ft 421 kts 181°
2026-05-07 20:15 -5.64308 -78.23703 35017 ft 420 kts 181°
2026-05-07 20:15 -5.67204 -78.23549 35048 ft 423 kts 181°
2026-05-07 20:16 -5.73148 -78.23270 35066 ft 431 kts 181°
2026-05-07 20:16 -5.79190 -78.22967 35045 ft 436 kts 181°
2026-05-07 20:17 -5.85233 -78.22669 35013 ft 431 kts 181°
2026-05-07 20:17 -5.91207 -78.22376 35009 ft 429 kts 181°
2026-05-07 20:18 -5.97154 -78.22082 35009 ft 432 kts 181°
2026-05-07 20:18 -6.03143 -78.21788 35033 ft 432 kts 181°
2026-05-07 20:19 -6.09192 -78.21489 35027 ft 437 kts 181°
2026-05-07 20:19 -6.15296 -78.21186 35039 ft 442 kts 181°
2026-05-07 20:20 -6.21472 -78.20885 35024 ft 446 kts 181°
2026-05-07 20:20 -6.27695 -78.20575 35022 ft 449 kts 181°
2026-05-07 20:21 -6.33942 -78.20268 35012 ft 450 kts 181°
2026-05-07 20:21 -6.40230 -78.19956 35016 ft 453 kts 181°
2026-05-07 20:22 -6.46544 -78.19647 35013 ft 456 kts 181°
2026-05-07 20:22 -6.52877 -78.19341 35004 ft 456 kts 181°
2026-05-07 20:23 -6.59182 -78.19018 35051 ft 457 kts 181°
2026-05-07 20:23 -6.65553 -78.18712 35009 ft 458 kts 181°
2026-05-07 20:24 -6.70836 -78.18452 35024 ft 457 kts 181°
2026-05-07 20:24 -6.78258 -78.18069 35032 ft 456 kts 181°
2026-05-07 20:25 -6.83529 -78.17820 34926 ft 455 kts 181°
2026-05-07 20:25 -6.89850 -78.17506 34994 ft 455 kts 181°
2026-05-07 20:26 -6.96193 -78.17192 35000 ft 456 kts 181°
2026-05-07 20:26 -7.02544 -78.16877 35005 ft 458 kts 181°
2026-05-07 20:27 -7.08925 -78.16560 35036 ft 459 kts 181°
2026-05-07 20:27 -7.15308 -78.16246 35042 ft 460 kts 181°
2026-05-07 20:28 -7.21716 -78.15927 35025 ft 462 kts 181°
2026-05-07 20:28 -7.28115 -78.15611 34978 ft 463 kts 181°
2026-05-07 20:29 -7.34558 -78.15292 34980 ft 464 kts 181°
2026-05-07 20:29 -7.41023 -78.14971 34954 ft 465 kts 181°
2026-05-07 20:30 -7.47489 -78.14650 34976 ft 465 kts 181°
2026-05-07 20:30 -7.53961 -78.14330 34987 ft 465 kts 181°
2026-05-07 20:31 -7.60432 -78.14009 34983 ft 466 kts 181°
2026-05-07 20:31 -7.66913 -78.13686 34972 ft 467 kts 181°
2026-05-07 20:32 -7.73408 -78.13365 34992 ft 467 kts 181°
2026-05-07 20:32 -7.79891 -78.13041 34995 ft 466 kts 181°
2026-05-07 20:33 -7.86339 -78.12723 35013 ft 467 kts 181°
2026-05-07 20:33 -7.92840 -78.12399 35031 ft 467 kts 181°
2026-05-07 20:34 -7.99346 -78.12076 35032 ft 468 kts 181°
2026-05-07 20:34 -8.05856 -78.11752 35072 ft 468 kts 181°
2026-05-07 20:35 -8.12366 -78.11428 35054 ft 469 kts 181°
2026-05-07 20:35 -8.18895 -78.11101 35075 ft 469 kts 181°
2026-05-07 20:36 -8.25420 -78.10779 35088 ft 470 kts 181°
2026-05-07 20:36 -8.31915 -78.10456 35054 ft 470 kts 181°
2026-05-07 20:37 -8.38265 -78.10138 35104 ft 470 kts 181°
2026-05-07 20:37 -8.44818 -78.09813 35107 ft 471 kts 181°
2026-05-07 20:38 -8.51365 -78.09486 35109 ft 472 kts 181°
2026-05-07 20:38 -8.57927 -78.09159 35109 ft 471 kts 181°
2026-05-07 20:39 -8.64490 -78.08832 35129 ft 472 kts 181°
2026-05-07 20:39 -8.71046 -78.08504 35134 ft 472 kts 181°
2026-05-07 20:40 -8.77507 -78.08187 35113 ft 458 kts 181°
2026-05-07 20:40 -8.83731 -78.07867 34984 ft 437 kts 180°
2026-05-07 20:40 -8.86734 -78.07719 35031 ft 425 kts 182°
2026-05-07 20:41 -8.89623 -78.07578 35100 ft 401 kts 181°
2026-05-07 20:41 -8.92299 -78.07427 35217 ft 366 kts 182°
2026-05-07 20:41 -8.94657 -78.07316 35203 ft 322 kts 184°
2026-05-07 20:41 -8.96764 -78.07216 35153 ft 278 kts 184°
2026-05-07 20:42 -8.98504 -78.07117 34446 ft 222 kts 183°
2026-05-07 20:42 -8.99715 -78.07040 29132 ft 164 kts 171°
2026-05-07 20:42 -9.00805 -78.06776 22880 ft 116 kts 85°
2026-05-07 20:42 -9.01252 -78.06850 15504 ft 38 kts 238°
2026-05-07 20:43 -9.00588 -78.07426 10531 ft 272 kts 326°
2026-05-07 20:43 -8.99265 -78.08403 10375 ft 193 kts 310°
2026-05-07 20:43 -8.98586 -78.09509 8585 ft 206 kts 302°
2026-05-07 20:43 -8.97892 -78.10750 7087 ft 190 kts 306°
2026-05-07 20:44 -8.97555 -78.11256 7568 ft 15 kts 266°
2026-05-07 20:44 -8.97666 -78.11215 7343 ft 32 kts 153°
2026-05-07 20:44 -8.97693 -78.11196 7300 ft 0 kts 159°